Flag for U.S.A. Weather past 2 weeks in Savannah, Georgia, U.S.A.

Now
73 °F

Clear.


Feels Like: 72 °F
Forecast: 73 / 87 °F
Wind: 5 mph from West

Location: Hunter U. S. Army Airfield

Current Time: Jul 30, 2014 at 5:08:46 AM

Latest Report: Jul 30, 2014 at 3:58 AM


Visibility: 10 mi

Pressure: 29.93 "Hg

Humidity: 87%

Dew point: 69 °F

Location of SavannahLocation

Historic Weather in Savannah — Graph

°F

Savannah temperature yesterday

Maximum temperature yesterday: 90 °F (at 2:58 PM)
Minimum temperature yesterday: 75 °F (at 6:58 AM)
Average temperature yesterday: 82 °F

Past Weeks' High & Low Weather Summary

 TemperatureHumidityPressure
High96 °F (Jul 27, 4:58 PM)100% (Jul 16, 7:58 AM)30.11 "Hg (Jul 16, 7:58 AM)
Low71 °F (Jul 18, 4:58 AM)38% (Jul 17, 2:58 PM)29.81 "Hg (Jul 28, 5:58 PM)
Average81 °F78%29.98 "Hg
* Reported Jul 15 3:58 AM — Jul 30 3:58 AM, Savannah, Weather by CustomWeather, © 2014

Note: Actual official high and low records may vary slightly from our data, if they occured in-between our weather recording intervals... More about our weather records

Advertising

Savannah weather history for previous 24 hours

 ConditionsComfort  
Time TempWeatherWind HumidityBarometerVisibility
3:58 AM
Jul 30
73 °FClear.5 mph87%29.93 "Hg10 mi
2:58 AM75 °FClear.1 mph84%29.93 "Hg10 mi
1:58 AM76 °FPassing clouds.3 mph91%29.94 "Hg10 mi
12:58 AM76 °FOvercast.5 mph90%29.94 "Hg10 mi
11:58 PM
Jul 29
77 °FClear.No wind86%29.94 "Hg10 mi
10:58 PM78 °FClear.No wind86%29.95 "Hg10 mi
9:58 PM80 °FPassing clouds.3 mph80%29.94 "Hg10 mi
8:58 PM81 °FSunny.3 mph78%29.93 "Hg10 mi
7:58 PM83 °FScattered clouds.8 mph71%29.91 "Hg10 mi
6:58 PM86 °FOvercast.2 mph64%29.89 "Hg10 mi
5:58 PM88 °FBroken clouds.2 mph59%29.88 "Hg10 mi
4:58 PM90 °FPassing clouds.5 mph41%29.88 "Hg10 mi
3:58 PM90 °FBroken clouds.8 mph45%29.89 "Hg10 mi
2:58 PM90 °FSunny.5 mph44%29.89 "Hg10 mi
1:58 PM88 °FScattered clouds.3 mph47%29.90 "Hg10 mi
12:58 PM88 °FSunny.2 mph52%29.91 "Hg10 mi
11:58 AM86 °FSunny.2 mph55%29.92 "Hg10 mi
10:58 AM84 °FSunny.5 mph57%29.93 "Hg10 mi
9:58 AM81 °FSunny.6 mph59%29.91 "Hg10 mi
8:58 AM79 °FSunny.8 mph62%29.90 "Hg10 mi
7:58 AM76 °FSunny.5 mph70%29.90 "Hg10 mi
6:58 AM75 °FPassing clouds.6 mph73%29.89 "Hg10 mi
5:58 AM76 °FPartly cloudy.7 mph74%29.88 "Hg10 mi
Weather by CustomWeather, © 2014

See weather overviewHow to use our weather pages